Dosis diarias (en J/m2) de radiaci�n solar incidente en superficie.
Lugar de muestreo: Estaci�n de Fotobiolog�a Playa Uni�n (EFPU) en Playa Uni�n, Chubut, Argentina (-43.311263, -65.040969).
Datos aportados al Sistema Nacional de Datos del Mar.
Fecha,Dosis PAR,DosisUV-A,DosisUV-B
2013-01-02,12978232.0,2180835.0,47657.3
2013-01-03,12378767.6,2099427.7,45918.1
2013-01-04,12356515.8,1903278.4,46735.9
2013-01-05,12375499.8,1909276.4,46640.3
2013-01-06,3279377.1,571556.4,14824.6
2013-01-07,10868854.9,1836682.5,40565.7
2013-01-08,8142350.4,1293073.0,30591.2
2013-01-09,11751567.3,1979527.6,45183.6
2013-01-10,12515800.1,1886360.3,47014.8
2013-01-11,10795987.1,1792034.4,45872.3
2013-01-15,11573439.0,1918705.6,45895.6
2013-01-16,10782883.8,1829178.9,41436.6
2013-01-17,12102067.9,1800403.0,44351.9
2013-01-18,10055483.2,1531540.3,37708.3
2013-01-19,11938250.0,1768770.4,44260.1
2013-01-20,12085608.5,1788615.4,44598.4
2013-01-21,12008375.5,1858538.2,43974.1
2013-01-22,11017945.6,1635910.0,41444.3
2013-01-23,8843466.0,1360924.3,34359.7
2013-01-24,7518690.0,1173456.5,29855.6
2013-01-25,12039782.7,1781958.3,44159.7
2013-01-26,11194606.8,1669857.1,41165.2
2013-01-27,11732866.8,1750690.7,43394.5
2013-01-28,11647649.9,1740482.0,43155.9
2013-01-29,9422851.8,1449787.8,37447.1
2013-01-30,11600043.1,1722739.1,42587.9
2013-01-31,9994291.0,1535398.8,38948.0
2013-02-01,10122056.3,1534383.5,38871.5
2013-02-02,10893048.9,1621892.1,39407.2
2013-02-03,11337049.1,1684943.6,41842.3
2013-02-04,11214284.2,1859317.2,40369.8
2013-02-05,11095290.4,1646262.4,40726.2
2013-02-06,10655935.7,1592612.4,40789.4
2013-02-07,10545712.9,1581395.6,40181.7
2013-02-08,10553621.0,1552926.1,39240.2
2013-02-09,8301637.2,1268602.1,31271.8
2013-02-10,6196328.6,1004398.9,28119.3
2013-02-11,9453614.7,1439445.4,36512.1
2013-02-12,9094407.7,1359136.4,33256.7
2013-02-13,9580120.4,1634526.3,34230.1
2013-02-14,9714527.2,1436821.3,34674.2
2013-02-15,2004505.9,352223.1,8157.0
2013-02-16,2081016.8,374794.6,9687.6
2013-02-17,8971332.5,1545597.1,30822.1
2013-02-18,10268435.3,1494877.0,34813.0
2013-02-19,10178955.9,1485139.6,34943.1
2013-02-20,10141940.1,1478748.3,34783.6
2013-02-21,6397792.8,1005103.8,25379.5
2013-02-22,2336754.7,398038.3,9699.9
2013-02-25,7858382.4,1387814.4,28240.5
2013-02-26,9246692.2,1357030.5,32121.1
2013-02-27,6242698.8,970464.3,23091.5
2013-02-28,3722716.0,620053.1,15156.7
2013-03-01,3015287.8,724945.9,13309.8
2013-03-02,7121712.3,1084757.7,25078.7
2013-03-03,9261058.6,1329368.0,30262.6
2013-03-04,9174085.4,1316262.8,29744.2
2013-03-05,8855576.3,1280339.6,29378.7
2013-03-06,8285257.9,1196880.9,26277.7
2013-03-07,5663208.0,866746.9,19553.3
2013-03-08,8334442.9,1217188.4,27315.8
2013-03-09,2684465.8,442257.7,9423.9
2013-03-10,8719575.9,1250190.6,27850.8
2013-03-11,7723072.6,1116345.8,23918.0
2013-03-12,6541168.0,989508.7,21723.3
2013-03-13,5579041.5,874398.0,19589.9
2013-03-14,4787643.3,734986.3,15680.7
2013-03-15,6943545.5,1003904.6,20848.8
2013-03-16,8137082.7,1154097.2,24498.5
2013-03-17,6753904.8,987543.1,21491.6
2013-03-18,6715852.3,994466.8,21714.5
2013-03-19,7690450.3,1085763.1,23215.1
2013-03-20,4398894.8,699494.2,17394.6
2013-03-21,7766673.8,1289300.5,22425.3
2013-03-22,7134751.3,1021649.5,21578.7
2013-03-23,6262679.3,926368.3,19444.7
2013-03-24,3616751.5,551823.5,10958.1
2013-03-25,7228551.5,1018304.3,20667.0
2013-03-26,6042116.3,879949.3,18541.7
2013-03-27,6081513.0,888254.0,18663.8
2013-03-28,6978244.5,982479.2,20596.2
2013-03-29,4942341.9,739666.5,15658.4
2013-03-30,3248242.8,520947.2,10953.2
2013-03-31,6652524.3,925978.3,17840.1
2013-04-01,5386298.1,789662.2,15791.0
2013-04-02,2755138.5,446846.0,9263.7
2013-04-03,4621585.2,684530.3,13913.6
2013-04-04,6259543.7,874555.9,16689.2
2013-04-05,5393089.8,781057.3,14741.5
2013-04-06,5587059.3,789918.0,14489.7
2013-04-07,4043548.5,615033.4,11491.3
2013-04-08,5394590.3,766205.0,14140.1
2013-04-09,4441510.3,651417.7,11779.1
2013-04-10,5557718.0,925254.1,13841.0
2013-04-11,5230917.0,742857.6,12569.5
2013-04-12,4382181.1,629106.2,10181.9
2013-04-13,4844380.0,692498.8,12544.9
2013-04-14,5232889.2,731160.7,13032.1
2013-04-15,4771815.1,680787.2,12256.7
2013-04-16,4442090.3,635829.8,11472.5
2013-04-17,4135057.0,741394.3,11115.0
2013-04-18,4939906.3,681353.6,12075.8
2013-04-19,4887402.8,672756.3,11866.4
2013-04-20,4692521.9,639492.3,11087.5
2013-04-21,4447516.1,615091.2,10515.7
2013-04-22,3304086.0,665335.5,8201.9
2013-04-23,1309433.2,211277.5,3615.0
2013-04-24,1659191.3,331452.4,4432.9
2013-04-25,4551658.3,653315.6,9708.9
2013-04-26,4422872.4,601413.9,9548.8
2013-04-27,3784703.1,535147.3,8672.5
2013-04-28,3688694.7,517407.2,8450.8
2013-04-29,2732128.9,407261.3,6630.3
2013-04-30,2321013.6,352370.3,5328.4
2013-05-01,2337619.7,354229.6,5667.3
2013-05-02,3839981.6,529496.2,7847.3
2013-05-03,3171872.3,457707.5,6724.9
2013-05-04,2902561.2,416297.4,6055.0
2013-05-05,3203725.7,441180.3,6476.9
2013-05-06,3627807.1,495347.6,6904.5
2013-05-07,929501.8,150679.7,2141.4
2013-05-08,3386050.1,470195.7,6489.5
2013-05-09,1735142.1,261384.6,3736.7
2013-05-10,2630658.8,358773.4,5075.7
2013-05-11,2314430.2,336019.2,4537.4
2013-05-12,3203258.0,439276.8,5805.0
2013-05-13,2114165.8,341201.7,4645.3
2013-05-14,2095829.0,327834.4,3993.3
2013-05-15,2409700.0,362781.6,4634.5
2013-05-16,2742513.7,391680.2,5074.3
2013-05-17,2991245.3,407645.3,5217.1
2013-05-18,2912610.3,401001.5,5073.4
2013-05-19,2458680.5,350698.6,4454.2
2013-05-20,2250209.1,322384.3,3982.3
2013-05-21,2062180.8,326448.4,4216.1
2013-05-22,2468090.3,531236.3,4458.6
2013-05-23,1554418.3,372726.8,3181.6
2013-05-24,2507320.1,359763.5,4443.6
2013-05-25,2414425.5,347924.1,4406.3
2013-05-26,2218623.8,330114.9,4113.2
2013-05-27,1095610.5,182251.1,2089.8
2013-05-28,2051826.5,308122.0,3576.1
2013-05-29,2264623.2,337817.9,3800.0
2013-05-30,1619892.8,250855.1,2816.9
2013-05-31,1305808.5,205365.9,2150.4
2013-06-01,2125319.1,249553.6,2890.5
2013-06-02,2820075.3,316191.5,3484.3
2013-06-03,1035495.0,307151.8,1465.3
2013-06-04,2448668.8,290109.7,3268.3
2013-06-05,1842631.9,223028.9,2314.4
2013-06-06,2240603.3,258163.0,2871.6
2013-06-07,2698458.3,308575.2,3279.8
2013-06-08,2743312.5,311731.8,3544.3
2013-06-09,2694099.6,307968.2,3482.9
2013-06-10,1315882.0,173120.5,2117.3
2013-06-11,1547576.7,187624.2,2027.8
2013-06-12,1312352.9,165093.4,1661.6
2013-06-13,2306092.8,262434.7,2791.6
2013-06-14,1743520.2,214019.9,2387.0
2013-06-15,2479476.5,283723.0,3219.0
2013-06-16,2564005.5,291012.4,3081.1
2013-06-17,2707170.4,284117.3,2897.2
2013-06-18,2393570.3,263726.5,2634.4
2013-06-19,2523690.7,289622.8,3090.2
2013-06-20,2078058.4,250116.1,2534.6
2013-06-21,634566.3,87822.7,892.9
2013-06-22,2606351.0,299208.1,3097.2
2013-06-23,2619867.2,300233.9,3256.9
2013-06-24,2558149.8,297414.4,3213.2
2013-06-25,2600966.6,299491.0,3225.8
2013-06-26,1663948.1,204313.9,2229.4
2013-06-27,1565298.9,196900.3,2011.6
2013-06-30,2433182.9,291287.2,2858.9
2013-07-01,1459294.8,183670.5,1943.2
2013-07-02,998206.8,133814.7,1457.5
2013-07-03,1778841.4,233066.4,2534.2
2013-07-04,2437812.6,289317.7,3143.9
2013-07-05,1443330.8,182741.2,1893.1
2013-07-06,1950909.4,246120.6,2712.4
2013-07-07,2852677.2,322162.9,3583.6
2013-07-08,2787134.6,321152.9,3776.3
2013-07-09,2817993.9,321285.4,3673.1
2013-07-10,2616677.6,305415.7,3552.8
2013-07-11,2936679.0,329796.4,3792.4
2013-07-12,2240860.3,267003.7,3118.6
2013-07-13,2487165.6,281222.4,3162.2
2013-07-14,2994536.7,338326.9,3754.1
2013-07-15,2296673.0,271624.9,3308.8
2013-07-16,2329549.9,277522.8,3489.3
2013-07-17,817518.5,110218.4,1205.7
2013-07-18,3340096.4,369672.3,4123.5
2013-07-19,1769367.2,214934.4,2539.6
2013-07-20,1872517.3,231884.4,2525.4
2013-07-22,3214488.8,365390.6,4525.7
2013-07-23,3420026.4,387617.9,4618.9
2013-07-24,3632959.7,398888.9,5056.6
2013-07-25,2675567.0,338030.5,4529.2
2013-07-26,1956820.9,235400.8,3031.0
2013-07-27,3765390.2,412702.2,5239.2
2013-07-28,3831062.0,418913.5,5313.3
2013-07-29,3870693.5,424017.9,5509.5
2013-07-30,2618953.7,294568.9,3900.9
2013-07-31,1657629.6,231385.0,3110.0
2013-08-01,2054115.1,328559.8,4647.1
2013-08-02,2721101.0,401302.1,5652.5
2013-08-03,1939595.0,299946.8,3823.4
2013-08-04,1611320.8,261932.5,3553.6
2013-08-05,2445475.9,367923.2,4948.9
2013-08-06,2036884.3,322690.9,4585.6
2013-08-07,2655814.1,377902.9,5043.8
2013-08-08,3581306.2,507162.1,6729.9
2013-08-09,3616277.4,515043.7,7329.8
2013-08-10,3184146.8,469927.3,6932.6
2013-08-11,2894431.5,426330.2,6173.7
2013-08-12,3883987.0,546253.7,7632.4
2013-08-13,3932632.2,554319.2,7794.7
2013-08-14,2020026.6,312765.6,4750.5
2013-08-15,3422518.7,493504.8,7888.4
2013-08-16,4200791.7,591001.9,9097.5
2013-08-17,3630349.7,538885.7,8748.1
2013-08-18,3352011.5,508165.1,8447.4
2013-08-19,4384104.3,615107.7,9347.2
2013-08-20,2362187.6,384328.8,6391.4
2013-08-21,1111278.8,200213.9,3269.1
2013-08-22,2759050.0,433244.2,7025.3
2013-08-23,3563915.7,537754.9,8765.3
2013-08-24,2935380.7,471242.2,6969.3
2013-08-25,4907327.3,706266.3,11304.0
2013-08-26,4446657.1,819344.9,10845.5
2013-08-27,4971857.9,714362.1,12288.5
2013-08-28,5193739.1,740049.4,12720.9
2013-08-29,3552525.4,551629.6,10378.7
2013-08-30,3180072.7,500465.5,9352.8
2013-08-31,1864668.9,312719.0,5431.7
2013-09-01,4466194.6,664690.5,12298.1
2013-09-02,3294531.8,530963.0,9757.2
2013-09-03,4929962.7,719900.6,12539.8
2013-09-04,1732292.6,297217.5,5487.0
2013-09-05,3659954.4,527874.1,9984.8
2013-09-06,2280899.5,363061.2,7440.8
2013-09-09,3620862.8,746379.4,11911.1
2013-09-10,6365097.8,879172.9,15843.1
2013-09-11,4936996.3,738677.8,14222.4
2013-09-12,5394093.8,807990.4,15828.8
2013-09-13,5904200.8,860795.1,16538.0
2013-09-14,6772214.4,945322.5,17505.9
2013-09-15,6779838.0,948032.8,17620.8
2013-09-16,5823249.7,849595.5,16739.1
2013-09-17,6851844.6,959689.1,18252.4
2013-09-18,7194420.2,1003409.7,19795.5
2013-09-19,4659759.2,683148.9,13885.6
2013-09-20,3817576.7,594528.4,11745.3
2013-09-21,6274024.1,893043.5,18348.3
2013-09-22,7101181.4,996760.1,19760.3
2013-09-23,7510034.9,1055072.0,23405.1
2013-09-24,7541800.0,1253565.5,21189.6
2013-09-25,7566848.8,1047475.8,21554.4
2013-09-26,5522381.1,824424.9,16728.2
2013-09-27,5956044.7,913458.7,18800.1
2013-09-28,3146618.3,515776.3,10941.9
2013-09-29,1671450.5,293044.3,6331.7
2013-09-30,3285218.7,548595.4,12757.2
2013-10-01,3428889.6,557408.2,12467.2
2013-10-02,8404314.8,1205674.2,25719.2
2013-10-03,8699872.8,1232493.1,25650.7
2013-10-04,6712643.8,1020072.9,22876.2
2013-10-05,8837077.2,1260229.8,27764.9
2013-10-06,8903672.0,1266783.9,27389.8
2013-10-07,8547462.4,1224710.6,26947.3
2013-10-08,6417253.3,928486.1,20214.8
2013-10-09,8347073.5,1206155.2,25483.0
2013-10-10,8898776.8,1277870.3,27351.5
2013-10-11,9077398.4,1295552.1,28295.4
2013-10-12,9097879.6,1292238.4,28977.4
2013-10-13,9028956.2,1302372.5,29786.8
2013-10-14,9341848.8,1338347.7,30936.4
2013-10-15,8379118.7,1244155.9,29907.7
2013-10-16,6768889.5,1046204.2,26369.0
2013-10-17,9646424.0,1393180.2,33622.8
2013-10-18,9828013.8,1414122.7,33553.4
2013-10-19,7796267.0,1158263.3,27246.2
2013-10-20,7503442.4,1176168.3,27576.9
2013-10-21,9629559.5,1401352.6,31605.8
2013-10-22,8751428.6,1283769.7,28702.1
2013-10-23,9950664.2,1466115.0,33571.6
2013-10-24,10507787.2,1522489.0,35308.4
2013-10-25,10037102.3,1662344.6,33449.2
2013-10-26,8719812.9,1301529.6,30772.0
2013-10-27,10589279.2,1531648.1,34751.0
2013-10-28,10553793.6,1523904.1,34638.4
2013-10-29,9200505.8,1366580.4,32259.8
2013-10-30,3120518.9,493651.0,10050.5
2013-10-31,4403628.1,715340.9,16961.8
2013-11-01,10824583.0,1586086.7,36075.8
2013-11-02,10952140.1,1610879.3,38716.8
2013-11-03,4446753.1,743816.6,19120.8
2013-11-04,10228347.8,1527229.7,37455.6
2013-11-05,10589892.7,1561353.0,37891.3
2013-11-06,8283115.5,1286697.8,31953.6
2013-11-07,8520433.2,1285418.9,29672.2
2013-11-08,6838014.7,1087209.6,25733.7
2013-11-09,11350620.6,1662625.6,38025.3
2013-11-10,8900091.0,1351998.3,31719.3
2013-11-11,10414590.9,1498966.4,34945.1
2013-11-12,10928054.5,1587699.9,36648.3
2013-11-13,5105853.3,828760.6,20119.8
2013-11-14,8549805.0,1315654.1,32604.7
2013-11-15,11789712.6,1739418.9,41566.3
2013-11-16,11808380.4,1744354.3,41973.3
2013-11-18,12018919.5,1990975.6,41617.2
2013-11-19,11239516.3,1667362.4,40542.6
2013-11-20,9949457.7,1507424.7,36267.8
2013-11-21,10791137.1,1620896.0,39928.4
2013-11-22,9223813.7,1414156.6,36515.8
2013-11-23,9772928.9,1509587.3,38457.9
2013-11-24,9314249.3,1427800.0,36592.3
2013-11-25,12258234.7,1784469.2,42199.9
2013-11-26,12196674.5,1776816.6,42871.0
2013-11-27,11995666.5,1753575.9,41994.3
2013-11-28,11801336.1,1727777.9,41820.4
2013-11-29,10915655.2,1624480.6,40515.6
2013-11-30,7656746.2,1185835.8,30021.5
2013-12-01,12221403.4,1776344.7,42653.4
2013-12-02,8803255.1,1260597.1,29467.8
2013-12-03,10115415.0,1484046.8,36479.8
2013-12-04,10652550.3,1560787.9,37354.4
2013-12-05,12055446.2,1937933.5,42134.6
2013-12-06,12045921.2,1737435.2,41850.8
2013-12-07,12074094.7,1737841.9,41368.3
2013-12-08,11744830.4,1699748.1,40721.7
2013-12-09,10838110.9,1857355.2,41805.2
2013-12-10,11899803.3,1765659.0,43829.0
2013-12-11,12562573.4,1850773.4,45295.3
2013-12-12,11191216.9,1682970.3,41639.6
2013-12-13,9397654.9,1452989.9,36436.6
2013-12-14,12539552.3,1837740.9,44915.7
2013-12-15,12518740.6,2004557.2,45936.9
2013-12-16,12807774.8,1873757.1,46504.7
2013-12-17,12340947.8,2023756.3,46520.6
2013-12-18,12004524.2,1770785.2,45361.9
2013-12-19,8758817.0,1336083.5,33624.9
2013-12-20,6164458.0,982902.1,25713.1
2013-12-21,11283748.4,1810079.1,48197.2
2013-12-23,12564648.7,2034913.4,45534.8
2013-12-24,12630922.7,1832289.3,45926.7
2013-12-26,12322236.2,1993129.0,43271.0
